"Pseudo-MPEC" for P21VeJq

Created 2024 Jun 21 15:22:11 UT using Find_Orb

Click here for an explanation of pseudo-MPECs

 
 Astrometry: 
     P21VeJq* C2024 06 06Q953's89%5ITQsU=Jscq;F!)7,NWJ].=rAyEY8KHaAstrometryYF52
     P21VeJq  C2024 06 06(l,]dVVMNKN)Te5\v9?*Wk%V68H;`cuhU'redacted;%?8[G@`OIF52
     P21VeJq  C2024 06 06:n9vkR;uc`!sw9A8T^gv:oYa7Z'x/P8$Ciov^D9EEgB9b4GGCaKyF52
     P21VeJq |C2024 06 07t27/9iC[BgJk=/60T5wP(`dO-fMH7vI=+`J:BclickF[llRU(b/q807
     P21VeJq |C2024 06 07:_$)aj0c\7__.kVooJ7o+]a79Cy;9om@xTdc=W`.HWhereq@HfK,807
     P21VeJq |C2024 06 07(byK;!@/qi7Bfor1V+NV+explanation+pm-fKX,syWY'sX,i4'x807

Station data:
(807) Cerro Tololo Observatory, La Serena  (S30.169133 W70.805900)  Chile.
   Observer R. Holmes. 0.61-m f/6.5 astrograph + CCD.
(F52) Pan-STARRS 2, Haleakala  (N20.707382 W156.255910)  US/Hawaii.
   Observers J. Bulger, T. Dukes, T. Lowe, A. Schultz, M. Willman. Measurers
   K. Chambers, S. Chastel, T. de Boer, L. Denneau, J. Fairlamb, H.
   Flewelling, M. Huber, C.-C. Lin, E. Magnier, Y. Ramanjooloo, R. Wainscoat,
   R. Weryk. 1.8-m Ritchey-Chrétien + CCD.

Orbital elements:  P21VeJq
   Perihelion 2024 Dec 20.43782 +/- 261 TT = 10:30:27 (JD 2460664.93782)
Epoch 2024 Jun  7.0 TT = JDT 2460468.5   Earth MOID: 0.6167      AutoNEOCP
M 291.54449182 +/- 90               (J2000 ecliptic)
n   0.34848436 +/- 0.0963           Peri.   88.41564 +/- 90
a   1.99992563 +/- 0.369            Node   255.82390 +/- 1.9
e   0.1991156 +/- 0.161             Incl.    7.60648 +/- 6
P   2.83                   H 20.37  G  0.15   U 11.2  SR
q 1.60170905 +/- 0.181    Q 2.39814222 +/- 0.902
From 6 observations 2024 June 6-7 (19.5 hr); mean residual 0".33
Residuals in arcseconds: 
240606 F52  .34+  .01+    240606 F52  .25-  .03-    240607 807  .07-  .15-    
240606 F52  .09-  .02+    240607 807  .36+  .77+    240607 807  .24-  .59-    

Ephemerides (geocentric):
Date (UTC) HH   RA             Dec           delta  r     elong  mag " sig PA
---- --------  ------------   ------------  ------ ------ -----  --- --------
2024 06 21 15  16 14 23.951   -20 28 53.38  .92212 1.8925 155.0 22.3 1477  61
2024 06 21 16  16 14 21.689   -20 28 32.27  .92220 1.8924 154.9 22.3 1485  61
2024 06 21 17  16 14 19.431   -20 28 11.16  .92228 1.8923 154.9 22.3 1493  61
2024 06 21 18  16 14 17.176   -20 27 50.07  .92235 1.8922 154.8 22.4 1501  61
2024 06 21 19  16 14 14.924   -20 27 28.99  .92243 1.8921 154.8 22.4 1509  61
2024 06 21 20  16 14 12.675   -20 27 07.91  .92251 1.8920 154.7 22.4 1517  61
2024 06 21 21  16 14 10.430   -20 26 46.85  .92259 1.8919 154.7 22.4 1524  61
2024 06 21 22  16 14 08.189   -20 26 25.80  .92267 1.8918 154.6 22.4 1532  61
2024 06 21 23  16 14 05.950   -20 26 04.75  .92275 1.8917 154.6 22.4 1540  61
2024 06 22 00  16 14 03.715   -20 25 43.72  .92283 1.8916 154.5 22.4 1548  61
2024 06 22 01  16 14 01.484   -20 25 22.70  .92292 1.8914 154.5 22.4 1556  61
2024 06 22 02  16 13 59.255   -20 25 01.68  .92300 1.8913 154.4 22.4 1564  61
2024 06 22 03  16 13 57.031   -20 24 40.68  .92308 1.8912 154.4 22.4 1572  61
2024 06 22 04  16 13 54.809   -20 24 19.69  .92316 1.8911 154.3 22.4 1580  61
2024 06 22 05  16 13 52.591   -20 23 58.70  .92324 1.8910 154.3 22.4 1588  61
2024 06 22 06  16 13 50.376   -20 23 37.73  .92333 1.8909 154.2 22.4 1596  61
2024 06 22 07  16 13 48.165   -20 23 16.77  .92341 1.8908 154.2 22.4 1604  61
2024 06 22 08  16 13 45.957   -20 22 55.82  .92349 1.8907 154.1 22.4 1612  61
2024 06 22 09  16 13 43.752   -20 22 34.88  .92358 1.8906 154.1 22.4 1620  61
2024 06 22 10  16 13 41.551   -20 22 13.95  .92366 1.8905 154.0 22.4 1628  61
2024 06 22 11  16 13 39.353   -20 21 53.02  .92375 1.8904 154.0 22.4 1636  61
2024 06 22 12  16 13 37.158   -20 21 32.11  .92383 1.8903 153.9 22.4 1645  61
2024 06 22 13  16 13 34.967   -20 21 11.21  .92392 1.8902 153.9 22.4 1653  61
2024 06 22 14  16 13 32.780   -20 20 50.33  .92400 1.8901 153.8 22.4 1661  61
2024 06 22 15  16 13 30.596   -20 20 29.45  .92409 1.8900 153.8 22.4 1669  61
2024 06 22 16  16 13 28.415   -20 20 08.58  .92417 1.8899 153.8 22.4 1677  61
2024 06 22 17  16 13 26.237   -20 19 47.72  .92426 1.8898 153.7 22.4 1685  61
2024 06 22 18  16 13 24.064   -20 19 26.88  .92435 1.8897 153.7 22.4 1694  61
2024 06 22 19  16 13 21.893   -20 19 06.04  .92443 1.8896 153.6 22.4 1702  61
2024 06 22 20  16 13 19.726   -20 18 45.21  .92452 1.8895 153.6 22.4 1710  61
2024 06 22 21  16 13 17.563   -20 18 24.40  .92461 1.8894 153.5 22.4 1718  61
2024 06 22 22  16 13 15.402   -20 18 03.60  .92470 1.8893 153.5 22.4 1727  61
2024 06 22 23  16 13 13.246   -20 17 42.80  .92479 1.8892 153.4 22.4 1735  61
2024 06 23 00  16 13 11.093   -20 17 22.02  .92487 1.8891 153.4 22.4 1743  61
2024 06 23 01  16 13 08.943   -20 17 01.25  .92496 1.8890 153.3 22.4 1752  61
2024 06 23 02  16 13 06.797   -20 16 40.49  .92505 1.8889 153.3 22.4 1760  61
2024 06 23 03  16 13 04.654   -20 16 19.74  .92514 1.8888 153.2 22.4 1768  61
2024 06 23 04  16 13 02.514   -20 15 59.01  .92523 1.8887 153.2 22.4 1777  61
2024 06 23 05  16 13 00.379   -20 15 38.28  .92532 1.8886 153.1 22.4 1785  61
2024 06 23 06  16 12 58.246   -20 15 17.57  .92541 1.8885 153.1 22.4 1794  61
2024 06 23 07  16 12 56.117   -20 14 56.86  .92551 1.8884 153.0 22.4 1802  61
2024 06 23 08  16 12 53.992   -20 14 36.17  .92560 1.8883 153.0 22.4 1811  61
2024 06 23 09  16 12 51.870   -20 14 15.49  .92569 1.8882 152.9 22.4 1819  61
2024 06 23 10  16 12 49.752   -20 13 54.82  .92578 1.8881 152.9 22.4 1827  61
2024 06 23 11  16 12 47.637   -20 13 34.16  .92587 1.8880 152.8 22.4 1836  61
2024 06 23 12  16 12 45.526   -20 13 13.51  .92597 1.8879 152.8 22.4 1844  60
2024 06 23 13  16 12 43.418   -20 12 52.87  .92606 1.8878 152.7 22.4 1853  60
2024 06 23 14  16 12 41.313   -20 12 32.25  .92615 1.8877 152.7 22.4 1862  60